N9LYA-3 Weather Reports


time (UTC)temp
F
wind
direction
speed
knots
gust
knots
rain 1hr
in
rain 24hr
in
rain mn
in
humidity
%
barometer
mb
20260508024743 48 236 0.0 0.0 0.00 0.00 0.00 80 1017.9
20260508024443 48 236 0.0 0.0 0.00 0.00 0.00 80 1017.9
20260508023543 48 236 0.0 0.0 0.00 0.00 0.00 80 1017.8
20260508022643 50 236 0.0 0.0 0.00 0.00 0.00 80 1017.8
20260508022345 50 236 0.0 0.0 0.00 0.00 0.00 80 1017.8
20260508022043 50 236 0.0 0.0 0.00 0.00 0.00 80 1017.8
20260508021743 50 236 0.0 0.0 0.00 0.00 0.00 80 1017.8
20260508021443 50 236 0.0 0.0 0.00 0.00 0.00 80 1017.8
20260508020843 50 236 0.0 0.0 0.00 0.00 0.00 80 1017.8
20260508020543 50 236 0.0 0.0 0.00 0.00 0.00 80 1017.8
20260508020243 50 236 0.0 0.0 0.00 0.00 0.00 80 1017.8
20260508015943 50 236 0.0 0.0 0.00 0.00 0.00 80 1017.7
20260508015643 50 236 0.0 0.0 0.00 0.00 0.00 80 1017.7
20260508015043 50 236 0.0 0.0 0.00 0.00 0.00 80 1017.8
20260508014743 50 236 0.0 0.0 0.00 0.00 0.00 80 1017.7
20260508013543 51 236 0.0 0.0 0.00 0.00 0.00 80 1017.7
20260508013243 51 236 0.0 0.0 0.00 0.00 0.00 78 1017.7
20260508012643 51 236 0.0 0.0 0.00 0.00 0.00 78 1017.7
20260508012343 51 236 0.0 0.0 0.00 0.00 0.00 78 1017.7
20260508012043 51 236 0.0 0.0 0.00 0.00 0.00 78 1017.7
20260508011743 53 236 0.0 0.0 0.00 0.00 0.00 78 1017.6
20260508011443 53 236 0.0 0.0 0.00 0.00 0.00 78 1017.6
20260508010845 53 236 0.0 0.0 0.00 0.00 0.00 78 1017.6
20260508010243 55 236 0.0 0.0 0.00 0.00 0.00 78 1017.5
20260508005945 55 237 0.0 0.0 0.00 0.00 0.00 78 1017.5
20260508005643 55 237 0.0 0.0 0.00 0.00 0.00 78 1017.5
20260508005343 55 236 0.0 0.0 0.00 0.00 0.00 76 1017.5
20260508005043 55 236 0.0 0.0 0.00 0.00 0.00 76 1017.5
20260508004743 57 236 0.0 0.0 0.00 0.00 0.00 76 1017.5
20260508004443 57 236 0.0 0.0 0.00 0.00 0.00 76 1017.4
20260508003543 57 236 0.0 0.0 0.00 0.00 0.00 76 1017.4
20260508003243 57 236 0.0 0.0 0.00 0.00 0.00 76 1017.4
20260508002943 59 236 0.0 0.0 0.00 0.00 0.00 76 1017.3
20260508002643 59 236 0.0 0.0 0.00 0.00 0.00 76 1017.3
20260508002343 59 235 0.0 0.0 0.00 0.00 0.00 74 1017.3
20260508002043 59 235 0.0 0.0 0.00 0.00 0.00 74 1017.3
20260508001743 59 236 0.0 2.6 0.00 0.00 0.00 74 1017.3
20260508001443 60 271 0.0 2.6 0.00 0.00 0.00 74 1017.3
20260508000545 60 272 0.0 2.6 0.00 0.00 0.00 74 1017.2
20260508000243 62 237 0.0 2.6 0.00 0.00 0.00 74 1017.2
20260507235643 62 234 0.0 4.3 0.00 0.00 0.00 74 1016.1
20260507235043 62 266 0.0 3.5 0.00 0.00 0.00 74 1016.1
20260507234743 62 272 0.0 2.6 0.00 0.00 0.00 74 1016.1
20260507234443 62 264 2.6 5.2 0.00 0.00 0.00 74 1016.1
20260507233843 62 252 3.5 5.2 0.00 0.00 0.00 74 1016.1
20260507233543 62 252 3.5 5.2 0.00 0.00 0.00 74 1016.1
20260507233243 62 245 0.0 3.5 0.00 0.00 0.00 74 1016.1
20260507232943 60 274 3.5 6.1 0.00 0.00 0.00 74 1016.2
20260507232644 60 274 3.5 6.1 0.00 0.00 0.00 74 1016.2
20260507232345 62 222 0.0 5.2 0.00 0.00 0.00 74 1016.1
20260507232043 62 222 0.0 5.2 0.00 0.00 0.00 74 1016.1
20260507231743 62 291 0.0 7.0 0.00 0.00 0.00 74 1016.1
20260507231443 62 251 0.0 4.3 0.00 0.00 0.00 74 1016.1
20260507230843 62 247 1.7 4.3 0.00 0.00 0.00 74 1016.1
20260507230543 62 247 1.7 4.3 0.00 0.00 0.00 74 1016.1
20260507230243 62 287 3.5 6.1 0.00 0.00 0.00 74 1016.1
20260507225943 64 271 2.6 5.2 0.00 0.00 0.00 74 1016.1
20260507225643 64 271 2.6 5.2 0.00 0.00 0.00 74 1016.1
20260507225343 64 267 1.7 4.3 0.00 0.00 0.00 71 1016.0
20260507225043 64 267 1.7 4.3 0.00 0.00 0.00 71 1016.0
20260507224743 66 317 2.6 4.3 0.00 0.00 0.00 71 1017.0
20260507224443 66 333 3.5 5.2 0.00 0.00 0.00 71 1017.0
20260507223543 66 312 1.7 5.2 0.00 0.00 0.00 71 1017.0
20260507223243 66 275 0.0 4.3 0.00 0.00 0.00 71 1017.0
20260507222943 66 238 1.7 5.2 0.00 0.00 0.00 71 1017.0
20260507222643 66 238 1.7 5.2 0.00 0.00 0.00 71 1017.0
20260507222343 66 295 1.7 3.5 0.00 0.00 0.00 71 1017.0
20260507222043 66 295 1.7 3.5 0.00 0.00 0.00 71 1017.0
20260507221743 66 272 0.0 1.7 0.00 0.00 0.00 71 1017.0
20260507220243 66 302 4.3 5.2 0.00 0.00 0.00 71 1017.0
20260507215943 66 313 0.0 0.0 0.00 0.00 0.00 71 1015.9
20260507215643 66 313 0.0 0.0 0.00 0.00 0.00 71 1015.9
20260507215343 66 295 0.0 0.0 0.00 0.00 0.00 71 1015.9
20260507215043 66 295 0.0 0.0 0.00 0.00 0.00 71 1015.9
20260507214743 66 286 0.0 0.0 0.00 0.00 0.00 71 1015.9
20260507214443 66 276 0.0 0.0 0.00 0.00 0.00 71 1015.9
20260507214145 66 276 0.0 0.0 0.00 0.00 0.00 71 1015.9
20260507213543 66 301 0.0 0.0 0.00 0.00 0.00 71 1016.0
20260507213243 66 268 0.0 0.0 0.00 0.00 0.00 71 1016.0
20260507212943 66 340 0.0 0.0 0.00 0.00 0.00 71 1016.0
20260507212645 66 340 0.0 0.0 0.00 0.00 0.00 71 1016.0
20260507212343 66 349 0.0 0.0 0.00 0.00 0.00 71 1015.9
20260507211743 66 243 0.0 0.0 0.00 0.00 0.00 71 1015.9
20260507211443 66 312 0.0 0.0 0.00 0.00 0.00 71 1017.0
20260507210543 66 298 0.0 0.0 0.00 0.00 0.00 71 1017.0
20260507210243 66 271 0.0 0.0 0.00 0.00 0.00 71 1017.0
20260507205943 66 268 0.0 0.0 0.00 0.00 0.00 71 1017.0
20260507205343 66 302 0.0 0.0 0.00 0.00 0.00 71 1017.0
20260507205043 66 302 0.0 0.0 0.00 0.00 0.00 71 1017.0
20260507204443 64 272 0.0 0.0 0.00 0.00 0.00 71 1017.1
20260507204144 64 272 0.0 0.0 0.00 0.00 0.00 71 1017.1
20260507203243 66 260 0.0 0.0 0.00 0.00 0.00 71 1017.0
20260507202943 66 308 0.0 0.0 0.00 0.00 0.00 71 1017.0
20260507202643 66 308 0.0 0.0 0.00 0.00 0.00 71 1017.0
20260507202343 66 288 0.0 0.0 0.00 0.00 0.00 71 1017.0
20260507202043 66 288 0.0 0.0 0.00 0.00 0.00 71 1017.0
20260507201743 66 329 0.0 0.0 0.00 0.00 0.00 71 1017.0
20260507201143 66 44 0.0 0.0 0.00 0.00 0.00 71 1017.0
20260507200843 66 357 0.0 0.0 0.00 0.00 0.00 71 1017.0
20260507200543 66 357 0.0 0.0 0.00 0.00 0.00 71 1017.0
20260507200243 66 287 0.0 0.0 0.00 0.00 0.00 71 1017.0
20260507195943 66 3 0.0 0.0 0.00 0.00 0.00 71 1017.0
20260507195643 66 3 0.0 0.0 0.00 0.00 0.00 71 1017.0
20260507195343 66 303 0.0 0.0 0.00 0.00 0.00 71 1017.0
20260507195043 66 303 0.0 0.0 0.00 0.00 0.00 71 1017.0
20260507194743 66 20 0.0 0.0 0.00 0.00 0.00 71 1017.0
20260507194443 66 316 0.0 0.0 0.00 0.00 0.00 71 1017.0
20260507193843 66 357 0.0 0.0 0.00 0.00 0.00 71 1017.0
20260507193543 66 357 0.0 0.0 0.00 0.00 0.00 71 1017.0
20260507193243 66 311 0.0 0.0 0.00 0.00 0.00 71 1017.0
20260507192943 66 259 0.0 0.0 0.00 0.00 0.00 71 1017.0
20260507192643 66 259 0.0 0.0 0.00 0.00 0.00 71 1017.0
20260507192343 66 314 0.0 0.0 0.00 0.00 0.00 71 1017.0
20260507192043 66 314 0.0 0.0 0.00 0.00 0.00 71 1017.0
20260507191743 66 325 0.0 0.0 0.00 0.00 0.00 71 1017.0
20260507191443 66 353 0.0 0.0 0.00 0.00 0.00 71 1017.0
20260507191143 66 353 0.0 0.0 0.00 0.00 0.00 71 1017.0
20260507190543 64 303 0.0 0.0 0.00 0.00 0.00 71 1017.0
20260507190243 64 323 0.0 0.0 0.00 0.00 0.00 71 1017.1
20260507185643 64 29 0.0 0.0 0.00 0.00 0.00 71 1017.1
20260507185343 64 293 0.0 0.0 0.00 0.00 0.00 71 1017.0
20260507184743 64 275 0.0 0.0 0.00 0.00 0.00 71 1017.1
20260507184443 64 291 0.0 0.0 0.00 0.00 0.00 71 1017.1
20260507184143 64 291 0.0 0.0 0.00 0.00 0.00 71 1017.1
20260507183543 64 294 0.0 0.0 0.00 0.00 0.00 74 1017.1
20260507183243 64 3 0.0 0.0 0.00 0.00 0.00 74 1017.1
20260507182943 64 357 0.0 0.0 0.00 0.00 0.00 74 1017.1
20260507182643 64 357 0.0 0.0 0.00 0.00 0.00 74 1017.1
20260507182343 64 357 0.0 0.0 0.00 0.00 0.00 74 1017.1
20260507181743 64 349 0.0 0.0 0.00 0.00 0.00 74 1018.1
20260507181444 64 353 0.0 0.0 0.00 0.00 0.00 74 1018.1
20260507181143 64 353 0.0 0.0 0.00 0.00 0.00 74 1018.1
20260507180543 64 2 0.0 0.0 0.00 0.00 0.00 74 1018.1
20260507180243 62 357 0.0 0.0 0.00 0.00 0.00 74 1018.1
20260507175943 62 353 0.0 0.0 0.00 0.00 0.00 74 1018.1
20260507175643 62 353 0.0 0.0 0.00 0.00 0.00 74 1018.1
20260507175044 62 283 0.0 0.0 0.00 0.00 0.00 74 1018.1
20260507174743 62 345 0.0 11.3 0.00 0.00 0.00 74 1018.1
20260507174443 62 348 0.0 7.8 0.00 0.00 0.00 74 1018.1
20260507173543 62 283 0.0 1.7 0.00 0.00 0.00 74 1018.1
20260507173243 64 340 0.0 0.0 0.00 0.00 0.00 74 1018.1
20260507172943 64 357 0.0 0.0 0.00 0.00 0.00 74 1018.1
20260507172043 64 1 0.0 0.0 0.00 0.00 0.00 74 1018.1
20260507171743 62 339 0.0 0.0 0.00 0.00 0.00 74 1018.1
20260507171443 62 333 0.0 0.0 0.00 0.00 0.00 74 1018.2
20260507171145 62 333 0.0 0.0 0.00 0.00 0.00 74 1018.2
20260507170543 62 248 0.0 0.0 0.00 0.00 0.00 74 1018.2
20260507170243 62 333 0.0 0.0 0.00 0.00 0.00 74 1018.2
20260507165943 62 312 0.0 0.0 0.00 0.00 0.00 74 1019.2
20260507165643 62 312 0.0 0.0 0.00 0.00 0.00 74 1019.2
20260507165043 62 48 0.0 0.0 0.00 0.00 0.00 74 1019.2
20260507164743 62 38 0.0 0.0 0.00 0.00 0.00 74 1019.2
20260507164443 62 282 0.0 0.0 0.00 0.00 0.00 74 1019.2
20260507164143 62 282 0.0 0.0 0.00 0.00 0.00 74 1019.2
20260507163243 60 262 0.0 0.0 0.00 0.00 0.00 74 1019.3
20260507162943 60 257 0.0 0.0 0.00 0.00 0.00 74 1019.3
20260507162643 60 257 0.0 0.0 0.00 0.00 0.00 74 1019.3
20260507162343 60 32 0.0 0.0 0.00 0.00 0.00 74 1019.3
20260507162043 60 32 0.0 0.0 0.00 0.00 0.00 74 1019.3
20260507161743 60 357 0.0 0.0 0.00 0.00 0.00 74 1019.3
20260507161443 60 0 0.0 0.0 0.00 0.00 0.00 74 1019.3
20260507160243 60 41 0.0 0.0 0.00 0.00 0.00 74 1019.3
20260507155943 60 57 0.0 0.0 0.00 0.00 0.00 74 1019.3
20260507155643 60 57 0.0 0.0 0.00 0.00 0.00 74 1019.3
20260507155343 60 32 0.0 6.1 0.00 0.00 0.00 74 1019.3
20260507154443 60 16 0.0 0.0 0.00 0.00 0.00 74 1019.3
20260507154143 60 16 0.0 0.0 0.00 0.00 0.00 74 1019.3
20260507153843 60 357 0.0 0.0 0.00 0.00 0.00 74 1019.3
20260507153543 60 357 0.0 0.0 0.00 0.00 0.00 74 1019.3
20260507153243 60 4 0.0 0.0 0.00 0.00 0.00 74 1019.3
20260507152943 60 345 0.0 0.0 0.00 0.00 0.00 74 1019.3
20260507152643 60 345 0.0 0.0 0.00 0.00 0.00 74 1019.3
20260507152343 60 3 0.0 0.0 0.00 0.00 0.00 74 1019.3
20260507152043 60 3 0.0 0.0 0.00 0.00 0.00 74 1019.3
20260507151743 60 353 0.0 0.0 0.00 0.00 0.00 74 1019.3
20260507151443 60 13 0.0 0.0 0.00 0.00 0.00 74 1019.3
20260507150543 60 357 0.0 0.0 0.00 0.00 0.00 74 1019.3
20260507145943 60 357 0.0 0.0 0.00 0.00 0.00 74 1019.3
20260507145643 60 357 0.0 0.0 0.00 0.00 0.00 74 1019.3
20260507145343 59 357 0.0 0.0 0.00 0.00 0.00 74 1019.3
20260507144743 59 32 0.0 0.0 0.00 0.00 0.00 74 1019.4
20260507144443 59 0 0.0 0.0 0.00 0.00 0.00 74 1019.3
20260507144143 59 0 0.0 0.0 0.00 0.00 0.00 74 1019.3
20260507143843 59 349 0.0 0.0 0.00 0.00 0.00 74 1019.4
20260507143545 59 349 0.0 0.0 0.00 0.00 0.00 74 1019.4
20260507143243 59 0 0.0 0.0 0.00 0.00 0.00 74 1019.4
20260507142943 59 298 0.0 0.0 0.00 0.00 0.00 74 1019.4
20260507142343 59 6 0.0 0.0 0.00 0.00 0.00 74 1019.4
20260507142043 59 6 0.0 0.0 0.00 0.00 0.00 74 1019.4
20260507141743 59 75 0.0 0.0 0.00 0.00 0.00 76 1019.4
20260507140543 57 332 0.0 0.0 0.00 0.00 0.00 76 1019.4
20260507140243 57 301 0.0 0.0 0.00 0.00 0.00 76 1019.4
20260507135344 57 3 0.0 0.0 0.00 0.00 0.00 76 1019.5
20260507135043 57 3 0.0 0.0 0.00 0.00 0.00 76 1019.5
20260507134443 57 48 0.0 0.0 0.00 0.00 0.00 76 1019.5
20260507134143 57 48 0.0 0.0 0.00 0.00 0.00 76 1019.5
20260507133543 57 325 0.0 0.0 0.00 0.00 0.00 76 1019.5
20260507132943 57 342 0.0 0.0 0.00 0.00 0.00 76 1019.5
20260507132343 55 43 0.0 0.0 0.00 0.00 0.00 78 1019.5
20260507131443 55 52 0.0 0.0 0.00 0.00 0.00 78 1019.6
20260507130843 55 357 0.0 0.0 0.00 0.00 0.00 78 1019.6
20260507124743 53 325 0.0 0.0 0.00 0.00 0.00 80 1019.6
20260507124443 53 323 0.0 0.0 0.00 0.00 0.00 84 1019.7
20260507124143 53 323 0.0 0.0 0.00 0.00 0.00 84 1019.7
20260507123543 51 324 0.0 0.0 0.00 0.00 0.00 91 1019.7
20260507123244 51 323 0.0 0.0 0.00 0.00 0.00 99 1019.8
20260507122943 50 323 0.0 0.0 0.00 0.00 0.00 99 1019.8
20260507122643 50 323 0.0 0.0 0.00 0.00 0.00 99 1019.8
20260507121743 46 323 0.0 0.0 0.00 0.00 0.00 99 1020.0
20260507121443 46 323 0.0 0.0 0.00 0.00 0.00 99 1020.0
20260507121143 46 323 0.0 0.0 0.00 0.00 0.00 99 1020.0
20260507120543 44 323 0.0 0.0 0.00 0.00 0.00 99 1020.1
20260507115943 42 323 0.0 0.0 0.00 0.00 0.00 99 1020.2
20260507115643 42 323 0.0 0.0 0.00 0.00 0.00 99 1020.2
20260507115343 41 323 0.0 0.0 0.00 0.00 0.00 99 1020.3
20260507115043 41 323 0.0 0.0 0.00 0.00 0.00 99 1020.3
20260507114744 41 323 0.0 0.0 0.00 0.00 0.00 99 1020.3
20260507114444 39 323 0.0 0.0 0.00 0.00 0.00 99 1020.4
20260507114144 39 323 0.0 0.0 0.00 0.00 0.00 99 1020.4
20260507113543 39 323 0.0 0.0 0.00 0.00 0.00 99 1020.4
20260507113243 37 323 0.0 0.0 0.00 0.00 0.00 99 1020.5
20260507111444 37 324 0.0 0.0 0.00 0.00 0.00 99 1020.5
20260507111143 37 324 0.0 0.0 0.00 0.00 0.00 99 1020.5
20260507110243 35 324 0.0 0.0 0.00 0.00 0.00 99 1019.5
20260507105643 35 324 0.0 0.0 0.00 0.00 0.00 99 1019.5
20260507105043 35 324 0.0 0.0 0.00 0.00 0.00 99 1019.5
20260507104443 35 324 0.0 0.0 0.00 0.00 0.00 99 1019.5
20260507104143 35 324 0.0 0.0 0.00 0.00 0.00 99 1019.5
20260507102943 37 324 0.0 0.0 0.00 0.00 0.00 99 1019.5
20260507102643 37 324 0.0 0.0 0.00 0.00 0.00 99 1019.5
20260507101743 37 324 0.0 0.0 0.00 0.00 0.00 99 1019.5
20260507101443 37 322 0.0 0.0 0.00 0.00 0.00 99 1019.5
20260507100543 37 322 0.0 0.0 0.00 0.00 0.00 99 1019.5
20260507095643 37 322 0.0 0.0 0.00 0.00 0.00 99 1019.4
20260507095343 39 322 0.0 0.0 0.00 0.00 0.00 99 1019.4
20260507095044 39 322 0.0 0.0 0.00 0.00 0.00 99 1019.4
20260507094743 39 322 0.0 0.0 0.00 0.00 0.00 99 1019.4
20260507094144 39 322 0.0 0.0 0.00 0.00 0.00 97 1019.4
20260507093243 39 322 0.0 0.0 0.00 0.00 0.00 95 1019.4
20260507092943 39 324 0.0 0.0 0.00 0.00 0.00 95 1019.3
20260507092643 39 324 0.0 0.0 0.00 0.00 0.00 95 1019.3
20260507091743 41 322 0.0 0.0 0.00 0.00 0.00 95 1019.3
20260507091143 41 322 0.0 0.0 0.00 0.00 0.00 95 1019.3
20260507085943 41 322 0.0 0.0 0.00 0.00 0.00 93 1019.2
20260507085643 41 322 0.0 0.0 0.00 0.00 0.00 93 1019.2
20260507085043 42 322 0.0 0.0 0.00 0.00 0.00 93 1019.2
20260507084743 42 322 0.0 0.0 0.00 0.00 0.00 93 1019.2
20260507084443 42 322 0.0 0.0 0.00 0.00 0.00 93 1019.2
20260507082944 42 323 0.0 0.0 0.00 0.00 0.00 93 1019.2
20260507082343 42 323 0.0 0.0 0.00 0.00 0.00 93 1019.2
20260507081143 42 324 0.0 0.0 0.00 0.00 0.00 93 1019.2
20260507080543 42 320 0.0 0.0 0.00 0.00 0.00 93 1019.2
20260507080243 42 319 0.0 0.0 0.00 0.00 0.00 93 1019.2
20260507075643 44 353 0.0 0.0 0.00 0.00 0.00 95 1019.1
20260507073543 44 346 0.0 0.0 0.00 0.00 0.00 97 1019.1
20260507072943 44 342 0.0 0.0 0.00 0.00 0.00 99 1019.1
20260507072643 44 342 0.0 0.0 0.00 0.00 0.00 99 1019.1
20260507072043 44 75 0.0 0.0 0.00 0.00 0.00 99 1019.1
20260507070544 42 353 0.0 0.0 0.00 0.00 0.00 97 1019.2
20260507065345 42 346 0.0 0.0 0.00 0.00 0.00 95 1019.2
20260507065043 42 346 0.0 0.0 0.00 0.00 0.00 95 1019.2
20260507062344 44 348 0.0 0.0 0.00 0.00 0.00 93 1019.0
20260507060543 46 348 0.0 0.0 0.00 0.00 0.00 93 1019.0
20260507055943 46 348 0.0 0.0 0.00 0.00 0.04 95 1019.0
20260507055343 46 348 0.0 0.0 0.00 0.00 0.04 95 1019.0
20260507055043 46 348 0.0 0.0 0.00 0.00 0.04 95 1019.0
20260507054444 46 322 0.0 0.0 0.00 0.00 0.04 99 1019.0
20260507053543 46 321 0.0 0.0 0.00 0.00 0.04 99 1019.0
20260507053244 46 321 0.0 0.0 0.00 0.00 0.04 99 1019.0
20260507052943 46 321 0.0 0.0 0.00 0.00 0.08 99 1019.0
20260507052043 46 322 0.0 0.0 0.00 0.00 0.08 99 1019.0
20260507051443 44 322 0.0 0.0 0.00 0.00 0.11 99 1019.0
20260507051143 44 322 0.0 0.0 0.00 0.00 0.11 99 1019.0
20260507050543 44 319 0.0 0.0 0.00 0.00 0.11 99 1019.0
20260507050243 44 321 0.0 0.0 0.00 0.00 0.11 99 1019.1
20260507045943 44 319 0.0 0.0 0.00 0.00 0.11 99 1019.1
20260507045644 44 319 0.0 0.0 0.00 0.00 0.11 99 1019.1
20260507045343 44 322 0.0 0.0 0.00 0.00 0.11 99 1019.1
20260507044744 44 320 0.0 0.0 0.00 0.00 0.11 99 1019.1
20260507043543 42 321 0.0 0.0 0.00 0.00 0.16 99 1019.2
20260507043244 42 321 0.0 0.0 0.00 0.00 0.16 99 1019.2
20260507042943 44 321 0.0 0.0 0.00 0.00 0.16 99 1019.1
20260507042643 44 321 0.0 0.0 0.00 0.00 0.16 99 1019.1
20260507042343 44 321 0.0 0.0 0.00 0.00 0.20 99 1019.1
20260507042045 44 321 0.0 0.0 0.00 0.00 0.20 99 1019.1
20260507041743 44 321 0.0 0.0 0.00 0.00 0.20 99 1019.1
20260507041443 44 321 0.0 0.0 0.00 0.00 0.20 99 1019.1
20260507035943 44 321 0.0 0.0 0.00 0.00 0.23 95 1019.1
20260507035643 44 321 0.0 0.0 0.00 0.00 0.23 95 1019.1
20260507035343 44 321 0.0 0.0 0.00 0.00 0.23 95 1019.1
20260507035045 44 321 0.0 0.0 0.00 0.00 0.23 95 1019.1
20260507034443 44 321 0.0 0.0 0.00 0.00 0.23 95 1019.0
20260507033545 44 321 0.0 0.0 0.00 0.00 0.28 93 1019.0
20260507032943 44 321 0.0 0.0 0.00 0.00 0.30 91 1019.0
20260507032643 44 321 0.0 0.0 0.00 0.00 0.30 91 1019.0
20260507032344 46 321 0.0 0.0 0.00 0.00 0.34 91 1019.0
20260507032043 46 321 0.0 0.0 0.00 0.00 0.34 91 1019.0
20260507031743 46 321 0.0 0.0 0.00 0.00 0.39 91 1019.0
20260507031143 46 321 0.0 0.0 0.00 0.00 0.39 91 1019.0
20260507030543 46 321 0.0 0.0 0.00 0.00 0.39 88 1019.0
20260507030243 46 321 0.0 0.0 0.00 0.00 0.39 88 1019.0
20260507025943 46 321 0.0 0.0 0.00 0.00 0.42 88 1019.0
20260507025643 46 321 0.0 0.0 0.00 0.00 0.42 88 1019.0
20260507025343 46 321 0.0 0.0 0.00 0.00 0.42 86 1019.0
20260507025043 46 321 0.0 0.0 0.00 0.00 0.42 86 1019.0